DL1NER Weather Reports


time (UTC)temp
C
wind
direction
speed
KPH
gust
KPH
rain 1hr
cm
rain 24hr
cm
rain mn
cm
humidity
%
barometer
mb
20220629044009 18 72 4.8 9.7 0.00 0.00 0.00 73 1013.7
20220629043010 18 86 3.2 8.0 0.00 0.00 0.00 74 1013.5
20220629042010 18 85 4.8 8.0 0.00 0.00 0.00 74 1013.5
20220629041010 18 38 1.6 3.2 0.00 0.00 0.00 74 1013.5
20220629040010 18 38 1.6 3.2 0.00 0.00 0.00 74 1013.5
20220629035010 18 38 0.0 3.2 0.00 0.00 0.00 74 1013.5
20220629034010 18 38 0.0 3.2 0.00 0.00 0.00 74 1013.4
20220629033009 18 38 0.0 3.2 0.00 0.00 0.00 74 1013.4
20220629032010 18 38 0.0 3.2 0.00 0.00 0.00 74 1013.6
20220629031010 18 38 0.0 3.2 0.00 0.00 0.00 74 1013.6
20220629030011 18 38 1.6 4.8 0.00 0.00 0.00 74 1013.7
20220629025011 18 13 0.0 3.2 0.00 0.00 0.00 74 1013.7
20220629024011 18 340 0.0 0.0 0.00 0.00 0.00 73 1013.9
20220629023011 18 340 0.0 0.0 0.00 0.00 0.00 73 1013.9
20220629022011 18 340 0.0 0.0 0.00 0.00 0.00 72 1013.8
20220629021010 18 340 1.6 4.8 0.00 0.00 0.00 72 1014.0
20220629020011 18 340 1.6 4.8 0.00 0.00 0.00 72 1014.0
20220629015011 18 69 0.0 0.0 0.00 0.00 0.00 71 1014.1
20220629014010 18 69 0.0 1.6 0.00 0.00 0.00 70 1014.2
20220629013010 18 69 0.0 1.6 0.00 0.00 0.00 70 1014.2
20220629012010 19 69 1.6 3.2 0.00 0.00 0.00 70 1014.1
20220629011010 19 69 1.6 4.8 0.00 0.00 0.00 69 1014.2
20220629010011 19 69 3.2 4.8 0.00 0.00 0.00 69 1014.2
20220629005017 19 68 1.6 6.4 0.00 0.00 0.00 69 1014.2
20220629004010 19 67 3.2 6.4 0.00 0.00 0.00 68 1014.2
20220629003010 19 65 1.6 4.8 0.00 0.00 0.00 68 1014.2
20220629002010 19 71 0.0 0.0 0.00 0.00 0.00 67 1014.5
20220629001010 19 71 0.0 0.0 0.00 0.00 0.00 67 1014.5
20220629000010 20 71 0.0 0.0 0.00 0.00 0.00 66 1014.5
20220628235010 20 71 1.6 4.8 0.00 0.00 0.00 65 1014.5
20220628234010 20 30 3.2 8.0 0.00 0.00 0.00 66 1014.2
20220628233010 20 65 1.6 6.4 0.00 0.00 0.00 66 1014.2
20220628232010 20 56 3.2 8.0 0.00 0.00 0.00 65 1014.3
20220628231009 20 56 3.2 8.0 0.00 0.00 0.00 65 1014.3
20220628230010 20 40 1.6 6.4 0.00 0.00 0.00 64 1014.7
20220628225010 20 62 1.6 6.4 0.00 0.00 0.00 63 1014.8
20220628224009 20 67 1.6 6.4 0.00 0.00 0.00 63 1015.0
20220628223010 20 67 1.6 6.4 0.00 0.00 0.00 63 1015.0
20220628222009 21 74 1.6 4.8 0.00 0.00 0.00 62 1015.4
20220628221010 21 74 1.6 4.8 0.00 0.00 0.00 62 1015.4
20220628220009 21 75 1.6 8.0 0.00 0.00 0.00 61 1015.3
20220628215009 21 76 3.2 4.8 0.00 0.00 0.00 61 1015.6
20220628214009 21 75 1.6 3.2 0.00 0.00 0.00 61 1015.5
20220628213009 21 75 1.6 4.8 0.00 0.00 0.00 60 1015.5
20220628212010 21 71 1.6 3.2 0.00 0.00 0.00 60 1015.5
20220628211010 21 76 3.2 4.8 0.00 0.00 0.00 60 1015.7
20220628210009 21 76 3.2 8.0 0.00 0.00 0.00 60 1015.7
20220628205009 21 63 1.6 4.8 0.00 0.00 0.00 60 1015.9
20220628204009 21 81 1.6 4.8 0.00 0.00 0.00 59 1015.9
20220628203009 21 81 0.0 3.2 0.00 0.00 0.00 59 1016.1
20220628202009 21 81 1.6 6.4 0.00 0.00 0.00 58 1015.9
20220628200013 21 81 3.2 6.4 0.00 0.00 0.00 58 1015.8
20220628195013 21 82 1.6 4.8 0.00 0.00 0.00 58 1015.7
20220628194013 21 82 1.6 4.8 0.00 0.00 0.00 58 1015.6
20220628193013 22 82 1.6 4.8 0.00 0.00 0.00 57 1015.6
20220628192013 22 83 1.6 3.2 0.00 0.00 0.00 57 1015.6
20220628191013 23 92 4.8 9.7 0.00 0.00 0.00 56 1015.5
20220628190013 23 92 4.8 9.7 0.00 0.00 0.00 56 1015.5
20220628185013 23 98 4.8 12.9 0.00 0.00 0.00 56 1015.6
20220628184013 23 76 4.8 9.7 0.00 0.00 0.00 55 1015.7
20220628183013 23 86 4.8 14.5 0.00 0.00 0.00 56 1015.6
20220628182013 23 80 4.8 8.0 0.00 0.00 0.00 55 1015.5
20220628181013 24 101 4.8 12.9 0.00 0.00 0.00 53 1015.3
20220628180013 24 101 4.8 12.9 0.00 0.00 0.00 53 1015.3
20220628175013 24 101 4.8 11.3 0.00 0.00 0.00 54 1015.4
20220628174012 25 80 6.4 12.9 0.00 0.00 0.00 52 1015.6
20220628173013 25 55 6.4 12.9 0.00 0.00 0.00 53 1015.7
20220628172012 25 103 9.7 17.7 0.00 0.00 0.00 50 1015.8
20220628171012 25 84 8.0 17.7 0.00 0.00 0.00 52 1016.3
20220628170012 25 84 8.0 17.7 0.00 0.00 0.00 52 1016.3
20220628165013 25 69 6.4 17.7 0.00 0.00 0.00 51 1016.5
20220628164012 26 67 6.4 17.7 0.00 0.00 0.00 49 1016.8
20220628163012 26 67 6.4 17.7 0.00 0.00 0.00 49 1016.8
20220628162012 26 119 8.0 17.7 0.00 0.00 0.00 49 1016.7
20220628161012 27 37 4.8 11.3 0.00 0.00 0.00 46 1016.9
20220628160012 27 37 4.8 11.3 0.00 0.00 0.00 46 1016.9
20220628155012 27 104 4.8 11.3 0.00 0.00 0.00 50 1017.0
20220628154012 27 62 3.2 8.0 0.00 0.00 0.00 44 1017.0
20220628153012 27 62 3.2 8.0 0.00 0.00 0.00 44 1017.0
20220628152012 26 66 6.4 16.1 0.00 0.00 0.00 42 1016.9
20220628151012 27 46 6.4 16.1 0.00 0.00 0.00 42 1017.0
20220628150012 27 46 6.4 16.1 0.00 0.00 0.00 42 1017.0
20220628145012 27 313 3.2 9.7 0.00 0.00 0.00 40 1017.2
20220628144011 27 30 6.4 16.1 0.00 0.00 0.00 43 1017.5
20220628143011 27 30 6.4 16.1 0.00 0.00 0.00 43 1017.5
20220628142011 27 173 4.8 12.9 0.00 0.00 0.00 49 1017.6
20220628141011 26 30 4.8 11.3 0.00 0.00 0.00 44 1017.9
20220628140012 26 30 4.8 11.3 0.00 0.00 0.00 44 1017.9
20220628135011 25 355 6.4 17.7 0.00 0.00 0.00 44 1018.2
20220628134011 25 341 4.8 14.5 0.00 0.00 0.00 44 1018.5
20220628133011 25 341 4.8 14.5 0.00 0.00 0.00 44 1018.5
20220628132012 26 60 6.4 14.5 0.00 0.00 0.00 49 1018.5
20220628131011 26 15 4.8 11.3 0.00 0.00 0.00 46 1018.8
20220628130011 26 15 4.8 11.3 0.00 0.00 0.00 46 1018.8
20220628125011 26 55 4.8 12.9 0.00 0.00 0.00 40 1018.9
20220628124011 25 39 8.0 19.3 0.00 0.00 0.00 45 1019.1
20220628123011 25 39 8.0 19.3 0.00 0.00 0.00 45 1019.1
20220628122011 25 9 3.2 11.3 0.00 0.00 0.00 49 1018.9
20220628121011 24 11 3.2 8.0 0.00 0.00 0.00 45 1019.1
20220628120011 24 11 3.2 8.0 0.00 0.00 0.00 49 1019.2
20220628115011 24 292 4.8 12.9 0.00 0.00 0.00 47 1019.3
20220628114010 23 49 4.8 17.7 0.00 0.00 0.00 47 1019.6
20220628113010 23 49 4.8 17.7 0.00 0.00 0.00 47 1019.6
20220628112010 23 41 6.4 16.1 0.00 0.00 0.00 44 1019.9
20220628111010 23 286 4.8 12.9 0.00 0.00 0.00 51 1019.7
20220628110010 23 60 4.8 14.5 0.00 0.00 0.00 49 1019.8
20220628105010 22 35 6.4 12.9 0.00 0.00 0.00 54 1020.0
20220628104010 22 304 1.6 6.4 0.00 0.00 0.00 53 1020.2
20220628103010 22 302 4.8 14.5 0.00 0.00 0.00 55 1020.1
20220628102010 22 65 4.8 12.9 0.00 0.00 0.00 51 1019.9
20220628101010 22 76 4.8 12.9 0.00 0.00 0.00 48 1019.9
20220628100010 23 325 3.2 16.1 0.00 0.00 0.00 52 1020.1
20220628095011 23 5 6.4 17.7 0.00 0.00 0.00 53 1020.3
20220628094010 23 5 6.4 17.7 0.00 0.00 0.00 48 1020.5
20220628093010 22 340 6.4 19.3 0.00 0.00 0.00 51 1020.5
20220628092010 22 82 4.8 14.5 0.00 0.00 0.00 54 1020.5
20220628091010 22 334 4.8 14.5 0.00 0.00 0.00 55 1020.5
20220628090010 21 252 3.2 12.9 0.00 0.00 0.00 57 1020.5
20220628085010 21 319 4.8 14.5 0.00 0.00 0.00 56 1020.8
20220628084010 21 325 4.8 12.9 0.00 0.00 0.00 57 1020.8
20220628083010 21 337 3.2 9.7 0.00 0.00 0.00 60 1021.0
20220628082010 21 355 6.4 11.3 0.00 0.00 0.00 63 1020.7
20220628081009 20 313 4.8 12.9 0.00 0.00 0.00 67 1020.8
20220628080010 20 313 4.8 12.9 0.00 0.00 0.00 67 1020.8
20220628075014 20 309 6.4 12.9 0.00 0.00 0.00 71 1020.9
20220628074014 20 264 4.8 14.5 0.00 0.00 0.00 71 1021.0
20220628073014 19 248 4.8 12.9 0.00 0.00 0.00 73 1020.8
20220628072014 19 290 3.2 11.3 0.00 0.00 0.00 74 1020.9
20220628071013 18 325 3.2 9.7 0.00 0.00 0.00 76 1020.9
20220628070014 18 325 3.2 9.7 0.00 0.00 0.00 76 1020.9
20220628065013 18 265 6.4 16.1 0.00 0.00 0.00 78 1020.8
20220628064013 18 265 3.2 12.9 0.00 0.00 0.00 79 1021.0
20220628063013 18 265 3.2 12.9 0.00 0.00 0.00 79 1021.0
20220628062013 18 250 4.8 11.3 0.00 0.00 0.00 80 1021.1
20220628061013 17 234 3.2 11.3 0.00 0.00 0.00 82 1021.2
20220628060013 17 234 3.2 11.3 0.00 0.00 0.00 82 1021.2
20220628055013 17 295 4.8 14.5 0.00 0.00 0.00 83 1021.1
20220628054013 16 271 4.8 16.1 0.00 0.00 0.00 85 1020.9
20220628053013 16 271 4.8 16.1 0.00 0.00 0.00 85 1020.9
20220628052016 16 317 8.0 16.1 0.00 0.00 0.00 86 1021.1
20220628051014 16 283 8.0 17.7 0.00 0.00 0.00 87 1020.9
20220628050013 15 275 9.7 19.3 0.00 0.00 0.00 89 1020.9
20220628045013 15 271 8.0 17.7 0.00 0.00 0.00 92 1021.0